Home > Weather > Ceuta > Past weeks

Flag for Spain Weather for the Past 2 Weeks in Ceuta, Ceuta, Spain

Now
63 °F

Broken clouds.


Feels Like: 63 °F
Forecast: 60 / 63 °F
Wind: 24 mph from West

Location: Gibraltar Airport

Current Time: Feb 12, 2016 at 5:33:52 PM

Latest Report: Feb 12, 2016 at 4:50 PM


Visibility: N/A

Pressure: 30.15 "Hg

Humidity: 77%

Dew point: 55 °F

Location of CeutaLocation

Historic Weather in Ceuta — Graph

°F

Ceuta Temperature Yesterday

Maximum temperature yesterday: 66 °F (at 3:50 PM)
Minimum temperature yesterday: 59 °F (at 6:50 AM)
Average temperature yesterday: 62 °F

High & Low Weather Summary for the Past Weeks

 TemperatureHumidityPressure
High68 °F (Jan 31, 4:50 PM)100% (Feb 2, 6:50 AM)30.57 "Hg (Feb 2, 6:50 AM)
Low50 °F (Jan 29, 7:50 AM)43% (Jan 31, 1:50 PM)30.12 "Hg (Feb 11, 3:50 AM)
Average60 °F79%30.34 "Hg
* Reported Jan 28 3:50 PM — Feb 12 3:50 PM, Ceuta, Weather by CustomWeather, © 2016

Note: Actual official high and low records may vary slightly from our data, if they occured in-between our weather recording intervals... More about our weather records

Advertising

Ceuta Weather History for the Previous 24 Hours

 ConditionsComfort  
Time TempWeatherWind HumidityBarometerVisibility
3:50 PM
Fri, Feb 12
64 °FBroken clouds.17 mph73%30.12 "HgN/A
2:50 PM64 °FPartly sunny.21 mph68%30.12 "HgN/A
1:50 PM63 °FPartly sunny.10 mph77%30.15 "HgN/A
12:50 PM63 °FPartly sunny.20 mph77%30.21 "HgN/A
11:50 AM64 °FPartly sunny.21 mph68%30.21 "HgN/A
10:50 AM63 °FPartly sunny.21 mph68%30.21 "HgN/A
9:50 AM61 °FPartly sunny.16 mph77%30.18 "HgN/A
8:50 AM61 °FPartly sunny.15 mph77%30.18 "HgN/A
7:50 AM61 °FPassing clouds.14 mph77%30.18 "HgN/A
6:50 AM61 °FPartly cloudy.15 mph83%30.18 "HgN/A
5:50 AM61 °FPartly cloudy.18 mph83%30.18 "HgN/A
4:50 AM61 °FPartly cloudy.20 mph83%30.18 "HgN/A
3:50 AM61 °FPassing clouds.16 mph83%30.18 "HgN/A
2:50 AM61 °FPartly cloudy.16 mph83%30.18 "HgN/A
1:50 AM61 °FPartly cloudy.18 mph83%30.18 "HgN/A
12:50 AM61 °FPassing clouds.18 mph88%30.18 "HgN/A
11:50 PM
Thu, Feb 11
63 °FPassing clouds.15 mph83%30.18 "HgN/A
9:50 PM63 °FPartly cloudy.18 mph83%30.18 "HgN/A
8:50 PM63 °FPartly cloudy.16 mph83%30.15 "HgN/A
7:50 PM63 °FLight rain. Passing clouds.17 mph83%30.15 "HgN/A
6:50 PM63 °FPartly sunny.16 mph83%30.15 "HgN/A
5:50 PM64 °FBroken clouds.17 mph78%30.15 "HgN/A
Weather by CustomWeather, © 2016

See weather overviewHow to use our weather pages